CW6575 Weather Reports


time (UTC)temp
C
wind
direction
speed
KPH
gust
KPH
rain 1hr
cm
rain 24hr
cm
rain mn
cm
humidity
%
barometer
mb
20260503191627 12 296 3.2 9.7 0.00 0.00 0.00 40 1017.6
20260503190056 11 281 4.8 17.7 0.00 0.00 0.00 39 1017.8
20260503184559 11 320 1.6 8.0 0.00 0.00 0.00 40 1017.9
20260503183111 11 333 4.8 9.7 0.00 0.00 0.00 42 1018.1
20260503181551 11 332 4.8 12.9 0.00 0.00 0.00 44 1018.2
20260503180050 11 351 0.0 9.7 0.00 0.00 0.00 44 1018.6
20260503174546 10 346 3.2 11.3 0.00 0.00 0.00 48 1018.6
20260503173110 10 310 3.2 12.9 0.00 0.00 0.00 44 1018.6
20260503171545 10 339 3.2 9.7 0.00 0.00 0.00 48 1018.8
20260503120118 1 178 3.2 6.4 0.00 0.00 0.00 91 1019.2
20260503081521 1 341 0.0 3.2 0.00 0.00 0.00 84 1017.0
20260503071514 2 317 1.6 4.8 0.00 0.00 0.00 82 1016.3
20260503054504 2 331 0.0 0.0 0.00 0.00 0.00 80 1016.0
20260503053001 2 331 0.0 0.0 0.00 0.00 0.00 79 1015.9
20260503051606 2 331 0.0 3.2 0.00 0.00 0.00 79 1015.9
20260503050058 3 331 0.0 6.4 0.00 0.00 0.00 79 1015.9
20260503044558 3 330 3.2 6.4 0.00 0.00 0.00 78 1016.0
20260503043052 3 344 0.0 3.2 0.00 0.00 0.00 77 1016.0
20260503041604 3 348 1.6 6.4 0.00 0.00 0.00 77 1016.0
20260503040055 3 337 3.2 6.4 0.00 0.00 0.00 76 1015.9
20260503034602 4 343 0.0 8.0 0.00 0.00 0.00 75 1016.0
20260503033046 4 346 1.6 9.7 0.00 0.00 0.00 73 1016.0
20260503031544 4 331 1.6 6.4 0.00 0.00 0.00 70 1015.9
20260503030052 5 340 3.2 12.9 0.00 0.00 0.00 68 1015.9
20260503024540 5 351 3.2 9.7 0.00 0.00 0.00 67 1015.9
20260503023041 5 327 3.2 8.0 0.00 0.00 0.00 66 1015.8
20260503021543 5 333 1.6 6.4 0.00 0.00 0.00 66 1015.7
20260503020041 5 334 4.8 9.7 0.00 0.00 0.00 65 1015.7
20260503014540 5 333 3.2 6.4 0.00 0.00 0.00 64 1015.6
20260503013036 5 330 1.6 4.8 0.00 0.00 0.00 63 1015.4
20260503011536 5 340 3.2 9.7 0.00 0.00 0.00 61 1015.2
20260503010040 6 5 3.2 6.4 0.00 0.00 0.00 59 1014.9
20260503004535 6 9 4.8 16.1 0.00 0.00 0.00 56 1014.7
20260503003037 6 336 0.0 4.8 0.00 0.00 0.00 55 1014.5
20260503001533 6 341 1.6 6.4 0.00 0.00 0.00 54 1014.4
20260503000035 7 340 4.8 16.1 0.00 0.00 0.00 50 1014.2
20260502234532 7 321 4.8 12.9 0.00 0.00 0.00 51 1014.2
20260502233031 7 322 1.6 14.5 0.00 0.00 0.00 52 1013.8
20260502231532 7 333 3.2 8.0 0.00 0.00 0.00 50 1013.8
20260502230132 7 327 3.2 6.4 0.00 0.00 0.00 50 1013.6
20260502224530 8 322 3.2 16.1 0.00 0.00 0.00 46 1013.5
20260502223033 8 307 1.6 8.0 0.00 0.00 0.00 47 1013.4
20260502221528 8 290 3.2 6.4 0.00 0.00 0.00 49 1013.4
20260502220034 8 321 3.2 9.7 0.00 0.00 0.00 47 1013.2
20260502214531 8 323 1.6 8.0 0.00 0.00 0.00 49 1013.1
20260502213027 8 323 4.8 9.7 0.00 0.00 0.00 47 1013.0
20260502211541 8 285 4.8 11.3 0.00 0.00 0.00 45 1012.9
20260502210026 8 327 3.2 11.3 0.00 0.00 0.00 47 1012.7
20260502204525 8 299 3.2 14.5 0.00 0.00 0.00 46 1012.7
20260502203024 9 340 3.2 14.5 0.00 0.00 0.00 44 1012.7
20260502201522 9 344 1.6 8.0 0.00 0.00 0.00 45 1012.8
20260502200022 8 314 1.6 9.7 0.00 0.00 0.00 47 1012.9
20260502194519 8 11 3.2 14.5 0.00 0.00 0.00 45 1013.0
20260502193018 8 299 3.2 14.5 0.00 0.00 0.00 46 1013.1